This is the latest recevied weather packets stored in our database for station/object K5FEP. If no packets are shown the sender has not sent any weather packets the latest 10 day(s).
| Time | Temp. | Humidity | Pressure | Rain* | Wind** | Luminosity | Snow |
|---|---|---|---|---|---|---|---|
| 1788183128 | 27.22° C | 74% | 1019.7 hPa | 0 mm | - | 419 W/m² | - |
| 1788182824 | 26.67° C | 75% | 1019.8 hPa | 0 mm | - | 399 W/m² | - |
| 1788182523 | 26.67° C | 75% | 1019.7 hPa | 0 mm | - | 384 W/m² | - |
| 1788182223 | 26.11° C | 77% | 1019.9 hPa | 0 mm | - | 363 W/m² | - |
| 1788181920 | 25.56° C | 78% | 1019.8 hPa | 0 mm | - | 354 W/m² | - |
| 1788181615 | 25.56° C | 79% | 1019.9 hPa | 0 mm | - | 343 W/m² | - |
| 1788181310 | 25.56° C | 79% | 1019.8 hPa | 0 mm | - | 324 W/m² | - |
| 1788181008 | 25° C | 81% | 1019.9 hPa | 0 mm | - | 252 W/m² | - |
| 1788180704 | 25° C | 83% | 1019.8 hPa | 0 mm | - | 186 W/m² | - |
| 1788180400 | 24.44° C | 84% | 1019.6 hPa | 0 mm | - | 156 W/m² | - |
| 1788180096 | 23.89° C | 85% | 1019.6 hPa | 0 mm | - | 137 W/m² | - |
| 1788179796 | 23.89° C | 88% | 1019.5 hPa | 0 mm | - | 122 W/m² | - |
| 1788179495 | 23.33° C | 90% | 1019.7 hPa | 0 mm | - | 71 W/m² | - |
| 1788179194 | 22.78° C | 91% | 1019.7 hPa | 0 mm | - | 76 W/m² | - |
| 1788178891 | 22.78° C | 93% | 1019.7 hPa | 0 mm | - | 74 W/m² | - |
| 1788178590 | 22.22° C | 96% | 1019.8 hPa | 0 mm | - | 68 W/m² | - |
| 1788178286 | 21.67° C | 97% | 1019.8 hPa | 0 mm | - | 70 W/m² | - |
| 1788177981 | 21.67° C | 97% | 1019.7 hPa | 0 mm | - | 82 W/m² | - |
| 1788177676 | 21.11° C | 97% | 1019.9 hPa | 0 mm | - | 102 W/m² | - |
| 1788177372 | 20.56° C | 97% | 1019.6 hPa | 0 mm | - | 100 W/m² | - |
| 1788177067 | 20.56° C | 97% | 1019.7 hPa | 0 mm | - | 68 W/m² | - |
| 1788176766 | 20° C | 97% | 1019.7 hPa | 0 mm | - | 52 W/m² | - |
| 1788176461 | 20° C | 97% | 1019.7 hPa | 0 mm | - | 39 W/m² | - |
| 1788176160 | 20° C | 97% | 1019.7 hPa | 0 mm | - | 35 W/m² | - |
| 1788175856 | 20° C | 97% | 1019.7 hPa | 0 mm | - | 31 W/m² | - |
* Rain latest hour (hover to see other rain measurements)
** Current wind speed in m/s (hover to see current wind gust speed)